Location: Le Rocchette
(44.3500°N, 7.8333°E)
Time: 10:16:53
(UTC+00:00)

SL-16 R/B - Pass Details

Date: 17 November 2019
Orbit: 842 x 846 km, 71.0° (Epoch: 05 December)

Event Time Altitude Azimuth Distance (km) Brightness Sun altitude
Exits shadow 04:52:24 12° 330° (NNW) 2,329 4.1 -16.8°
Maximum altitude 04:57:40 71° 248° (WSW) 893 2.1 -15.9°
Drops below altitude 10° 05:03:17 10° 165° (SSE) 2,459 5.0 -14.9°
Sets 05:05:43 0° 164° (SSE) 3,390 5.8 -14.5°
